User: anonymous   Login
Location: Newark
(46.7000°N, 60.6000°W)
Time: 20:22:27
(UTC+00:00)
Language:

Vanguard 2 Rocket - Orbit

View from above orbital plane
View from above orbital plane
View from above satellite
View from above satellite

Ground track
Ground track

The orbit data is extracted from the following two-line orbital elements,

1    12U 59001B   20302.14826417  .00000350  00000-0  21371-3 0  9993
2    12  32.8979 246.7162 1666317  53.5797 320.7204 11.44342394537768
Epoch (UTC): 28 October 2020 03:33:30
Eccentricity: 0.1666317
inclination: 32.8979°
perigee height: 554 km
apogee height: 3326 km
right ascension of ascending node: 246.7162°
argument of perigee: 53.5797°
revolutions per day: 11.44342394
mean anomaly at epoch: 320.7204°
orbit number at epoch: 53776

The dashed part of the orbit path shows where the satellite is in the earth's shadow,  

DLR